Regional Weather Roundup
Issued by NWS

Home | Current Version | Previous Version | Graphics & Text | Print | Product List | Glossary On
Versions: 1 2 3 4 5 6 7 8 9 10 11 12 13 14 15 16 17 18 19 20 21 22 23 24 25 26 27 28 29 30 31 32 33 34 35 36 37 38 39 40 41 42 43 44 45 46 47 48 49 50
000
ASUS44 KMEG 181310
RWRTN
TENNESSEE HOURLY STATE WEATHER ROUNDUP
NATIONAL WEATHER SERVICE MEMPHIS TN
700 AM CST THU DEC 18 2014

TNZ002-004-019-021-049-052-054-088>092-181400-
WEST TENNESSEE

CITY           SKY/WX    TMP DP  RH WIND       PRES   REMARKS
MEMPHIS INTL   LGT RAIN  39  35  86 SE5       30.23R FOG
NWS MEMPHIS      N/A     37 N/A N/A MISG        N/A
JACKSON        CLOUDY    36  34  92 E3        30.23F FOG
DYERSBURG      CLOUDY    36  25  64 CALM      30.27R
UNION CITY     CLOUDY    32  30  93 E3        30.24S
PARIS          CLOUDY    30  28  93 CALM      30.25R
HUNTINGDON     CLOUDY    32  30  92 E5        30.25S WCI  27
LEXINGTON      CLOUDY    34  34 100 CALM      30.22S
SAVANNAH       CLOUDY    37  36  93 CALM      30.23S
$$

TNZ008-025-027-028-033-062-065-066-181400-
NORTH MIDDLE TENNESSEE

CITY           SKY/WX    TMP DP  RH WIND       PRES   REMARKS
NASHVILLE      CLOUDY    33  31  92 CALM      30.26S FOG
CLARKSVILLE    CLOUDY    32  29  88 CALM      30.26R
SMYRNA         CLOUDY    33  31  93 CALM      30.27R
COOKEVILLE     PTCLDY    30  30 100 CALM      30.20F
CROSSVILLE     CLOUDY    33  29  85 E3        30.18F FOG
$$

TNZ061-075-076-078-094-096-097-181400-
SOUTH MIDDLE TENNESSEE

CITY           SKY/WX    TMP DP  RH WIND       PRES   REMARKS
FAYETTEVILLE   CLOUDY    34  30  86 MISG      30.21S
TULLAHOMA      CLOUDY    32  30  93 CALM      30.22R
WINCHESTER     CLOUDY    34  32  93 CALM      30.22R
MCMINNVILLE    CLOUDY    32  32 100 CALM      30.19F
SHELBYVILLE    CLOUDY    36  34  93 CALM      30.24R
$$

TNZ017-018-042-046-047-181400-
NORTHEAST TENNESSEE

CITY           SKY/WX    TMP DP  RH WIND       PRES   REMARKS
TRI CITIES     CLOUDY    28  27  96 CALM      30.20S
ELIZABETHTON   PTSUNNY   25  25 100 CALM      30.19F
$$

TNZ012-013-036-069-073-074-181400-
CENTRAL EAST TENNESSEE

CITY           SKY/WX    TMP DP  RH WIND       PRES   REMARKS
KNOXVILLE      CLOUDY    34  29  82 NE5       30.22F WCI  30
OAK RIDGE      CLOUDY    35  30  82 CALM      30.24S
GATLINBURG     CLOUDY    28  28 100 CALM      30.22S
MORRISTOWN     MOSUNNY   32  30  93 CALM      30.21S
$$

TNZ083-085-099-181400-
SOUTHEAST TENNESSEE

CITY           SKY/WX    TMP DP  RH WIND       PRES   REMARKS
CHATTANOOGA    RAIN      37  30  75 NE7       30.22F WCI  32
$$

SKY/WX REPORTED AS FAIR MEANS FEW OR NO CLOUDS BELOW
12 THOUSAND FEET.



USA.gov is the U.S. government's official web portal to all federal, state and local government web resources and services.